When you browse on this site, cookies collect data to enhance your experience and personalize the content and advertising you see.
Visit our Privacy Policy to learn more. By continuing to use the site, you agree to this use of cookies and data.
  • In Czech Republic
  • List of Countries
  • For 7 days
  • Water Temperature
  • Satellite Maps
  • Weather Map
  • Weather Widgets
  • user-avatar
    Login

    Hourly Weather Kaprun

    Today, 19 February, Tuesday

    Time Temperature Precipitation Wind Pressure Humidity
    00:00 -6°C° 0 mm 2 mps 595 mmHg 46%
    01:00 -5°C° 0 mm 2 mps 595 mmHg 44%
    02:00 -6°C° 0 mm 2 mps 595 mmHg 44%
    03:00 -6°C° 0 mm 2 mps 595 mmHg 43%
    04:00 -6°C° 0 mm 1 mps 594 mmHg 43%
    05:00 -6°C° 0 mm 1 mps 594 mmHg 44%
    06:00 -6°C° 0 mm 1 mps 595 mmHg 46%
    07:00 -7°C° 0 mm 2 mps 595 mmHg 47%
    08:00 -3°C° 0 mm 1 mps 595 mmHg 56%
    09:00 -2°C° 0 mm 1 mps 596 mmHg 66%
    10:00 0°C° 0 mm 1 mps 597 mmHg 76%
    11:00 0°C° 0 mm 1 mps 597 mmHg 81%
    12:00 +1°C° 0 mm 1 mps 597 mmHg 85%
    13:00 +1°C° 0 mm 1 mps 597 mmHg 88%
    14:00 +1°C° 0 mm 1 mps 597 mmHg 89%
    15:00 +1°C° 0 mm 1 mps 596 mmHg 90%
    16:00 0°C° 0 mm 1 mps 596 mmHg 91%
    17:00 -1°C° 0 mm 1 mps 596 mmHg 88%
    18:00 -3°C° 0 mm 1 mps 595 mmHg 85%
    19:00 -6°C° 0 mm 1 mps 595 mmHg 82%
    20:00 -6°C° 0 mm 1 mps 595 mmHg 80%
    21:00 -6°C° 0 mm 1 mps 595 mmHg 77%
    22:00 -7°C° 0 mm 1 mps 595 mmHg 75%
    23:00 -7°C° 0 mm 1 mps 595 mmHg 76%

    Tomorrow, 20 February, Wednesday

    Time Temperature Precipitation Wind Pressure Humidity
    00:00 -7°C° 0 mm 1 mps 596 mmHg 78%
    01:00 -6°C° 0 mm 1 mps 596 mmHg 80%
    02:00 -7°C° 0 mm 1 mps 596 mmHg 81%
    03:00 -7°C° 0 mm 1 mps 596 mmHg 82%
    04:00 -7°C° 0 mm 1 mps 595 mmHg 83%
    05:00 -7°C° 0 mm 1 mps 595 mmHg 84%
    06:00 -7°C° 0 mm 1 mps 596 mmHg 85%
    07:00 -7°C° 0 mm 1 mps 596 mmHg 86%
    08:00 -4°C° 0 mm 1 mps 596 mmHg 87%
    09:00 -2°C° 0 mm 1 mps 597 mmHg 87%
    10:00 -1°C° 0 mm 1 mps 598 mmHg 88%
    11:00 0°C° 0 mm 1 mps 598 mmHg 89%
    12:00 0°C° 0 mm 1 mps 599 mmHg 91%
    13:00 +1°C° 0 mm 1 mps 599 mmHg 92%
    14:00 0°C° 0 mm 1 mps 599 mmHg 92%
    15:00 0°C° 0 mm 1 mps 598 mmHg 92%
    16:00 0°C° 0 mm 1 mps 598 mmHg 93%
    17:00 -1°C° 0 mm 1 mps 598 mmHg 93%
    18:00 -3°C° 0 mm 1 mps 598 mmHg 93%
    19:00 -4°C° 0 mm 1 mps 597 mmHg 93%
    20:00 -4°C° 0 mm 1 mps 598 mmHg 90%
    21:00 -6°C° 0 mm 1 mps 598 mmHg 88%
    22:00 -6°C° 0 mm 1 mps 598 mmHg 85%
    23:00 -6°C° 0 mm 1 mps 598 mmHg 83%

    Day after tomorrow, 21 February, Thursday

    Time Temperature Precipitation Wind Pressure Humidity
    00:00 -6°C° 0 mm 1 mps 598 mmHg 81%
    01:00 -6°C° 0 mm 1 mps 598 mmHg 79%
    02:00 -6°C° 0 mm 1 mps 598 mmHg 78%
    03:00 -6°C° 0 mm 1 mps 598 mmHg 77%
    04:00 -6°C° 0 mm 1 mps 598 mmHg 75%
    05:00 -6°C° 0 mm 1 mps 599 mmHg 75%
    06:00 -6°C° 0 mm 1 mps 599 mmHg 74%
    07:00 -6°C° 0 mm 1 mps 599 mmHg 74%
    08:00 -3°C° 0 mm 1 mps 600 mmHg 75%
    09:00 -1°C° 0 mm 1 mps 601 mmHg 77%
    10:00 +1°C° 0 mm 1 mps 602 mmHg 79%
    11:00 +1°C° 0 mm 1 mps 602 mmHg 82%
    12:00 +1°C° 0 mm 1 mps 601 mmHg 84%
    13:00 +2°C° 0 mm 1 mps 601 mmHg 87%
    14:00 +2°C° 0 mm 1 mps 601 mmHg 88%
    15:00 +1°C° 0 mm 1 mps 601 mmHg 88%
    16:00 +1°C° 0 mm 1 mps 601 mmHg 89%
    17:00 0°C° 0 mm 1 mps 600 mmHg 87%
    18:00 -2°C° 0 mm 1 mps 600 mmHg 84%
    19:00 -5°C° 0 mm 2 mps 600 mmHg 82%
    20:00 -6°C° 0 mm 2 mps 600 mmHg 82%
    21:00 -6°C° 0 mm 2 mps 600 mmHg 83%
    22:00 -6°C° 0 mm 2 mps 600 mmHg 83%
    23:00 -6°C° 0 mm 2 mps 600 mmHg 83%

    22 February, Friday

    Time Temperature Precipitation Wind Pressure Humidity
    00:00 -6°C° 0 mm 2 mps 600 mmHg 83%
    01:00 -6°C° 0 mm 2 mps 600 mmHg 83%
    02:00 -7°C° 0 mm 2 mps 600 mmHg 85%
    03:00 -7°C° 0 mm 2 mps 600 mmHg 86%
    04:00 -7°C° 0 mm 2 mps 600 mmHg 87%
    05:00 -7°C° 0 mm 2 mps 600 mmHg 88%
    06:00 -7°C° 0 mm 2 mps 600 mmHg 90%
    07:00 -7°C° 0 mm 2 mps 601 mmHg 91%
    08:00 -7°C° 0 mm 3 mps 601 mmHg 90%
    09:00 -5°C° 0 mm 3 mps 602 mmHg 90%
    10:00 -4°C° 0 mm 3 mps 602 mmHg 89%
    11:00 -4°C° 0 mm 3 mps 602 mmHg 89%
    12:00 -2°C° 0 mm 3 mps 603 mmHg 89%
    13:00 -2°C° 0 mm 3 mps 603 mmHg 89%
    14:00 -2°C° 0 mm 3 mps 602 mmHg 89%
    15:00 -2°C° 0 mm 3 mps 602 mmHg 90%
    16:00 -4°C° 0 mm 3 mps 602 mmHg 91%
    17:00 -4°C° 0 mm 3 mps 602 mmHg 93%
    18:00 -5°C° 0 mm 3 mps 602 mmHg 94%
    19:00 -5°C° 0 mm 2 mps 602 mmHg 96%
    20:00 -5°C° 0 mm 2 mps 602 mmHg 96%
    21:00 -5°C° 0 mm 2 mps 602 mmHg 95%
    22:00 -5°C° 0 mm 2 mps 602 mmHg 95%
    23:00 -4°C° 0 mm 1 mps 602 mmHg 95%

    23 February, Saturday

    Time Temperature Precipitation Wind Pressure Humidity
    00:00 -4°C° 0 mm 1 mps 602 mmHg 94%
    01:00 -6°C° 0 mm 1 mps 602 mmHg 93%
    02:00 -6°C° 0 mm 1 mps 602 mmHg 91%
    03:00 -6°C° 0 mm 1 mps 602 mmHg 90%
    04:00 -6°C° 0 mm 1 mps 602 mmHg 88%
    05:00 -6°C° 0 mm 1 mps 602 mmHg 85%
    06:00 -6°C° 0 mm 1 mps 602 mmHg 82%
    07:00 -6°C° 0 mm 1 mps 602 mmHg 79%
    08:00 -4°C° 0 mm 1 mps 603 mmHg 78%
    09:00 -2°C° 0 mm 1 mps 603 mmHg 76%
    10:00 -2°C° 0 mm 2 mps 604 mmHg 75%
    11:00 0°C° 0 mm 1 mps 604 mmHg 76%
    12:00 +1°C° 0 mm 1 mps 604 mmHg 76%
    13:00 +2°C° 0 mm 1 mps 604 mmHg 77%
    14:00 -1°C° 0 mm 2 mps 604 mmHg 77%
    15:00 -1°C° 0 mm 2 mps 604 mmHg 78%
    16:00 -1°C° 0 mm 2 mps 603 mmHg 78%
    17:00 -3°C° 0 mm 2 mps 603 mmHg 77%
    18:00 -4°C° 0 mm 2 mps 602 mmHg 75%
    19:00 -6°C° 0 mm 2 mps 602 mmHg 74%
    20:00 -6°C° 0 mm 2 mps 602 mmHg 72%
    21:00 -6°C° 0 mm 2 mps 602 mmHg 69%
    22:00 -6°C° 0 mm 2 mps 602 mmHg 67%
    23:00 -6°C° 0 mm 2 mps 602 mmHg 65%

    24 February, Sunday

    Time Temperature Precipitation Wind Pressure Humidity
    00:00 -6°C° 0 mm 2 mps 602 mmHg 64%
    01:00 -6°C° 0 mm 2 mps 602 mmHg 62%
    02:00 -6°C° 0 mm 2 mps 602 mmHg 62%
    03:00 -6°C° 0 mm 2 mps 602 mmHg 62%
    04:00 -6°C° 0 mm 2 mps 601 mmHg 62%
    05:00 -6°C° 0 mm 2 mps 601 mmHg 62%
    06:00 -6°C° 0 mm 2 mps 601 mmHg 63%
    07:00 -6°C° 0 mm 2 mps 601 mmHg 63%
    08:00 -5°C° 0 mm 2 mps 602 mmHg 66%
    09:00 -3°C° 0 mm 2 mps 603 mmHg 68%
    10:00 -2°C° 0 mm 2 mps 603 mmHg 70%
    11:00 -1°C° 0 mm 2 mps 603 mmHg 72%
    12:00 -1°C° 0 mm 2 mps 603 mmHg 75%
    13:00 +1°C° 0 mm 2 mps 603 mmHg 77%
    14:00 -1°C° 0 mm 2 mps 603 mmHg 78%
    15:00 -1°C° 0 mm 2 mps 603 mmHg 78%
    16:00 -1°C° 0 mm 2 mps 603 mmHg 78%
    17:00 -3°C° 0 mm 2 mps 602 mmHg 78%
    18:00 -5°C° 0 mm 2 mps 602 mmHg 79%
    19:00 -6°C° 0 mm 2 mps 602 mmHg 79%
    20:00 -4°C° 0 mm 1 mps 602 mmHg 75%
    21:00 -4°C° 0 mm 1 mps 602 mmHg 71%
    22:00 -6°C° 0 mm 1 mps 602 mmHg 67%
    23:00 -6°C° 0 mm 1 mps 602 mmHg 64%
    Show more